CAPE
0 0 0 0 0 0 0 0 0 0 0 0 0 0 0 0 0 0 0 0 0 0 0 0 0 0 0 0 0 0 0 0 0 0 0 0 0 2 0 0 0 0 0
0 0 0 0 0 0 0 0 0 0 0 0 0 0 0 0 0 0 0 0 0 0 0 0 0 0 0 0 0 0 0 0 0 0 0 0 0 0 0 0 0 0 0
0 0 0 0 0 0 0 0 0 0 0 0 0 0 0 0 0 0 0 0 0 0 0 0 0 0 0 0 0 0 0 0 0 0 0 0 0 0 0 0 0 0 0
0 0 0 0 0 0 0 0 0 0 0 0 0 0 0 0 0 0 0 0 0 0 0 0 0 0 0 0 0 0 0 0 0 0 0 0 0 0 0 0 0 0 0
0 0 0 0 0 0 0 0 0 0 0 0 0 0 0 0 0 0 0 0 0 0 0 0 0 0 0 0 0 0 0 0 0 0 0 0 0 0 0 0 0 0 0
0 0 0 0 0 0 0 0 0 0 0 0 0 0 0 0 0 0 0 0 0 0 0 0 0 0 0 0 0 0 0 0 0 0 0 0 0 0 0 0 0 0 0
0 0 0 0 0 0 0 0 0 0 0 0 0 0 0 0 0 0 0 0 0 0 0 0 0 0 0 0 0 0 0 0 0 0 0 0 0 0 0 0 0 0 0
0 0 0 0 0 0 0 0 0 0 0 0 0 0 0 0 0 0 0 0 0 0 0 0 0 0 0 0 0 0 0 0 0 0 0 0 0 0 1 0 2 3 0
0 0 0 0 0 0 0 0 0 0 0 0 0 0 0 0 0 0 0 0 0 0 0 0 0 0 0 0 0 0 0 0 0 3 2 1 3 9 9 9 8 15 21
0 0 0 0 0 0 0 0 0 0 0 0 0 0 0 0 0 0 0 0 0 0 0 0 0 0 0 0 0 0 0 0 0 2 9 18 28 33 38 39 10 11 34
0 0 0 0 0 0 0 0 0 0 0 0 0 0 0 0 0 0 0 0 0 0 0 0 0 0 0 0 0 0 0 0 0 0 0 1 10 33 45 57 21 11 9
0 0 0 0 0 0 0 0 0 0 0 0 0 0 0 0 0 0 0 0 0 0 0 0 0 0 0 0 0 0 0 0 0 0 0 0 0 2 17 40 12 15 5
0 0 0 0 0 0 0 0 0 0 0 0 0 0 0 0 0 0 0 0 0 0 0 0 0 0 0 0 0 0 0 0 0 0 0 0 0 2 27 18 12 16 3
0 0 0 0 0 0 0 0 0 0 0 0 0 0 0 0 0 0 0 0 0 0 0 0 0 0 0 0 0 0 0 0 0 0 0 0 0 0 23 44 24 8 23
0 0 0 0 0 0 0 0 0 0 0 0 0 0 0 0 0 0 0 0 0 0 0 0 0 0 0 0 0 0 0 0 0 4 4 12 20 18 13 43 44 19 37
0 0 0 0 0 0 0 0 0 0 0 0 0 0 0 0 0 0 0 0 0 0 0 0 0 0 0 0 0 0 0 3 7 14 11 11 39 52 30 25 85 77 79
0 0 0 0 0 0 0 0 0 0 0 0 0 0 0 0 0 0 0 0 0 0 0 0 0 0 0 0 0 0 2 8 14 21 30 22 19 38 35 42 65 62 66
0 0 0 0 0 0 0 0 0 0 0 0 0 0 0 0 0 0 0 0 0 0 0 0 0 0 0 0 0 0 1 10 11 13 16 27 30 34 53 56 54 41 36
0 0 0 0 0 0 0 0 0 0 0 0 0 0 0 0 0 0 0 0 0 0 0 0 0 0 0 0 0 2 3 4 6 12 10 21 26 22 41 62 75 53 63
0 0 0 0 0 0 0 0 0 0 0 0 0 0 0 0 0 0 0 0 0 0 0 0 0 0 0 0 0 3 11 9 20 10 15 20 38 38 41 58 62 91 47
0 0 0 0 0 0 0 0 0 0 0 0 0 0 0 0 0 0 0 0 0 0 0 0 0 0 0 0 2 4 21 31 36 47 50 45 41 43 57 54 44 46 87
0 0 0 0 0 0 0 0 0 0 0 0 0 0 0 0 0 0 0 1 1 1 1 1 2 2 2 6 9 13 21 31 49 48 56 37 28 34 49 61 60 64 61
0 0 0 0 0 0 0 0 0 0 0 0 0 0 0 0 0 1 2 3 3 6 3 5 11 21 25 40 47 76 74 49 44 33 21 31 64 69 80 58 60 73 67
0 0 0 0 0 0 0 0 0 0 0 0 0 0 0 0 1 3 4 7 6 8 11 29 35 17 17 28 23 29 36 15 29 56 74 75 53 48 55 70 51 53 65
0 0 0 0 0 0 0 0 0 0 0 0 0 0 0 2 3 5 6 6 9 17 24 17 24 28 31 21 32 50 45 49 38 27 41 37 45 29 8 18 19 57 47
0 0 0 0 0 0 0 0 0 0 0 0 0 0 3 4 5 5 10 8 6 2 3 9 13 14 17 22 23 36 48 49 36 28 35 50 52 33 52 37 35 45 42
CIN
-0 -0 -0 -0 -0 -0 -0 -0 -0 -0 -0 -0 -0 -0 -0 -0 -0 -0 -0 -0 -0 -0 -0 -0 -0 -0 -0 -0 -0 -0 -0 -0 -0 -0 -0 -0 -0 -0 -0 -0 -0 -0 -0
-0 -0 -0 -0 -0 -0 -0 -0 -0 -0 -0 -0 -0 -0 -0 -0 -0 -0 -0 -0 -0 -0 -0 -0 -0 -0 -0 -0 -0 -0 -0 -0 -0 -0 -0 -0 -0 -0 -0 -0 -0 -0 -0
-0 -0 -0 -0 -0 -0 -0 -0 -0 -0 -0 -0 -0 -0 -0 -0 -0 -0 -0 -0 -0 -0 -0 -0 -0 -0 -0 -0 -0 -0 -0 -0 -0 -0 -0 -0 -0 -0 -0 -0 -0 -0 -0
-0 -0 -0 -0 -0 -0 -0 -0 -0 -0 -0 -0 -0 -0 -0 -0 -0 -0 -0 -0 -0 -0 -0 -0 -0 -0 -0 -0 -0 -0 -0 -0 -0 -0 -0 -0 -0 -0 -0 -0 -0 -0 -0
-0 -0 -0 -0 -0 -0 -0 -0 -0 -0 -0 -0 -0 -0 -0 -0 -0 -0 -0 -0 -0 -0 -0 -0 -0 -0 -0 -0 -0 -0 -0 -0 -0 -0 -0 -0 -0 -0 -0 -0 -0 -0 -0
-0 -0 -0 -0 -0 -0 -0 -0 -0 -0 -0 -0 -0 -0 -0 -0 -0 -0 -0 -0 -0 -0 -0 -0 -0 -0 -0 -0 -0 -0 -0 -0 -0 -0 -0 -0 -0 -0 -0 -0 -0 -0 -0
-0 -0 -0 -0 -0 -0 -0 -0 -0 -0 -0 -0 -0 -0 -0 -0 -0 -0 -0 -0 -0 -0 -0 -0 -0 -0 -0 -0 -0 -0 -0 -0 -0 -0 -0 -0 -0 -0 -0 -0 -0 -0 -0
-0 -0 -0 -0 -0 -0 -0 -0 -0 -0 -0 -0 -0 -0 -0 -0 -0 -0 -0 -0 -0 -0 -0 -0 -0 -0 -0 -0 -0 -0 -0 -0 -0 -0 -0 -0 -0 -0 -0 -0 -0 -0 -0
-0 -0 -0 -0 -0 -0 -0 -0 -0 -0 -0 -0 -0 -0 -0 -0 -0 -0 -0 -0 -0 -0 -0 -0 -0 -0 -0 -0 -0 -0 -0 -0 -0 -0 -0 -0 -0 -0 -0 -0 -0 -0 -0
-0 -0 -0 -0 -0 -0 -0 -0 -0 -0 -0 -0 -0 -0 -0 -0 -0 -0 -0 -0 -0 -0 -0 -0 -0 -0 -0 -0 -0 -0 -0 -0 -0 -0 -0 -0 -0 -0 -0 -0 -0 -0 -0
-0 -0 -0 -0 -0 -0 -0 -0 -0 -0 -0 -0 -0 -0 -0 -0 -0 -0 -0 -0 -0 -0 -0 -0 -0 -0 -0 -0 -0 -0 -0 -0 -0 -0 -0 -0 -0 -0 -0 -0 -0 -0 -0
-0 -0 -0 -0 -0 -0 -0 -0 -0 -0 -0 -0 -0 -0 -0 -0 -0 -0 -0 -0 -0 -0 -0 -0 -0 -0 -0 -0 -0 -0 -0 -0 -0 -0 -0 -0 -0 -0 -0 -0 -0 -0 -0
-0 -0 -0 -0 -0 -0 -0 -0 -0 -0 -0 -0 -0 -0 -0 -0 -0 -0 -0 -0 -0 -0 -0 -0 -0 -0 -0 -0 -0 -0 -0 -0 -0 -0 -0 -0 -0 -0 -0 -0 -0 -0 -0
-0 -0 -0 -0 -0 -0 -0 -0 -0 -0 -0 -0 -0 -0 -0 -0 -0 -0 -0 -0 -0 -0 -0 -0 -0 -0 -0 -0 -0 -0 -0 -0 -0 -0 -0 -0 -0 -0 -0 -0 -0 -1 -0
-0 -0 -0 -0 -0 -0 -0 -0 -0 -0 -0 -0 -0 -0 -0 -0 -0 -0 -0 -0 -0 -0 -0 -0 -0 -0 -0 -0 -0 -0 -0 -0 -0 -0 -0 -0 -0 -0 -0 -0 -0 -0 -0
-0 -0 -0 -0 -0 -0 -0 -0 -0 -0 -0 -0 -0 -0 -0 -0 -0 -0 -0 -0 -0 -0 -0 -0 -0 -0 -0 -0 -0 -0 -0 -0 -0 -0 -0 -0 -0 -0 -0 -0 -0 -3 -0
-0 -0 -0 -0 -0 -0 -0 -0 -0 -0 -0 -0 -0 -0 -0 -0 -0 -0 -0 -0 -0 -0 -0 -0 -0 -0 -0 -0 -0 -0 -0 -0 -0 -0 -0 -0 -0 -0 -0 -0 -0 -1 -3
-0 -0 -0 -0 -0 -0 -0 -0 -0 -0 -0 -0 -0 -0 -0 -0 -0 -0 -0 -0 -0 -0 -0 -0 -0 -0 -0 -0 -0 -0 -0 -0 -0 -0 -0 -0 -0 -0 -0 -0 -0 -0 -1
-0 -0 -0 -0 -0 -0 -0 -0 -0 -0 -0 -0 -0 -0 -0 -0 -0 -0 -0 -0 -0 -0 -0 -0 -0 -0 -0 -0 -0 -0 -0 -0 -0 -0 -0 -0 -0 -0 -0 -0 -0 -0 -0
-0 -0 -0 -0 -0 -0 -0 -0 -0 -0 -0 -0 -0 -0 -0 -0 -0 -0 -0 -0 -0 -0 -0 -0 -0 -0 -0 -0 -0 -0 -0 -0 -0 -0 -0 -0 -0 -0 -0 -0 -0 -0 -0
-0 -0 -0 -0 -0 -0 -0 -0 -0 -0 -0 -0 -0 -0 -0 -0 -0 -0 -0 -0 -0 -0 -0 -0 -0 -0 -0 -0 -0 -0 -0 -0 -0 -0 -0 -0 -0 -0 -0 -0 -0 -0 -0
-0 -0 -0 -0 -0 -0 -0 -0 -0 -0 -0 -0 -0 -0 -0 -0 -0 -0 -0 -0 -0 -0 -0 -0 -0 -0 -0 -0 -0 -0 -0 -0 -0 -0 -0 -0 -0 -0 -0 -0 -0 -0 -0
-0 -0 -0 -0 -0 -0 -0 -0 -0 -0 -0 -0 -0 -0 -0 -0 -0 -0 -0 -0 -0 -0 -0 -0 -0 -0 -0 -0 -0 -0 -0 -0 -0 -0 -0 -1 -0 -0 -0 -0 -0 -0 -0
-0 -0 -0 -0 -0 -0 -0 -0 -0 -0 -0 -0 -0 -0 -0 -0 -0 -0 -0 -0 -0 -0 -0 -0 -0 -0 -0 -0 -0 -0 -0 -0 -0 -0 -0 -0 -0 -0 -0 -0 -0 -0 -0
-0 -0 -0 -0 -0 -0 -0 -0 -0 -0 -0 -0 -0 -0 -0 -0 -0 -0 -0 -0 -0 -0 -0 -0 -0 -0 -0 -0 -0 -0 -0 -0 -0 -0 -0 -0 -0 -0 -3 -0 -2 -0 -0
-0 -0 -0 -0 -0 -0 -0 -0 -0 -0 -0 -0 -0 -0 -0 -0 -0 -0 -0 -0 -0 -0 -0 -0 -0 -0 -0 -0 -0 -0 -0 -0 -0 -0 -0 -0 -0 -0 -0 -0 -0 -0 -0
Wind_Speed
12 11 11 11 10 9 9 8 8 8 6 6 6 5 5 5 5 5 6 6 6 7 7 5 6 6 6 8 9 8 9 8 10 9 10 7 7 4 11 5 8 6 8
14 13 13 12 11 10 8 7 7 7 5 5 4 3 5 4 4 4 5 5 6 6 6 6 6 7 6 8 9 10 7 6 7 8 9 8 10 3 12 5 9 7 8
17 16 14 13 10 10 10 8 7 6 5 6 6 5 5 3 3 3 3 4 5 5 6 7 6 7 6 6 7 8 9 7 7 8 5 6 6 12 5 11 7 11 10
16 15 15 14 13 10 8 8 7 7 6 6 5 6 4 4 3 3 3 3 5 5 6 6 6 6 6 7 7 7 7 7 8 7 4 7 9 7 9 9 10 10 11
18 17 16 14 12 10 9 8 8 7 7 6 6 5 5 4 3 3 3 4 4 4 5 6 6 6 5 7 8 8 8 6 7 7 7 8 7 10 9 12 9 11 10
18 16 14 13 12 9 9 9 9 8 7 6 6 6 6 5 4 3 2 2 2 3 5 7 7 7 8 9 9 10 11 10 9 9 9 9 9 9 11 13 13 14 12
18 17 17 14 13 12 11 10 10 9 8 7 7 6 6 5 5 2 2 4 4 4 6 8 8 8 9 10 10 11 12 12 11 12 10 10 10 9 9 11 13 13 12
17 17 16 14 13 13 12 11 10 9 8 7 6 5 5 3 2 2 3 3 4 5 7 7 8 9 10 10 10 9 10 12 11 14 12 10 10 10 9 9 12 14 13
17 17 15 13 13 12 11 11 10 8 7 6 5 5 4 3 3 3 3 4 5 5 7 8 9 9 10 11 12 10 13 13 12 13 13 12 11 10 11 11 11 11 14
16 15 13 12 11 10 9 9 8 8 7 6 5 4 3 2 3 3 5 6 7 7 9 9 10 11 12 12 13 12 13 14 11 11 15 14 12 13 11 10 11 11 12
16 14 12 11 11 10 10 10 9 9 7 5 4 3 1 2 3 5 6 7 8 10 11 12 12 13 14 14 14 15 16 16 16 16 16 17 17 12 12 11 11 11 11
15 13 13 13 12 11 10 9 8 7 5 4 2 1 2 4 5 7 9 10 11 12 13 13 14 15 15 16 16 16 15 17 17 18 18 19 13 16 15 11 14 12 13
15 14 13 12 12 11 10 8 6 5 4 2 1 3 5 6 8 10 11 11 12 13 13 14 15 16 16 16 17 18 18 18 19 18 18 18 18 16 13 14 12 11 11
15 14 13 12 11 9 8 7 6 4 2 0 3 5 7 8 9 10 11 12 12 13 14 15 16 16 17 17 17 18 18 19 18 17 17 19 18 19 17 14 14 13 12
15 14 13 11 10 8 7 5 4 2 0 3 5 7 8 9 10 11 12 12 13 13 15 16 17 16 15 13 16 17 19 19 19 18 18 17 18 22 22 14 15 14 12
15 14 12 10 8 7 5 4 2 1 3 5 6 7 9 9 11 12 12 14 15 15 16 17 17 16 12 21 24 22 17 19 19 18 18 18 21 20 26 27 29 22 15
15 13 11 8 6 5 3 2 2 2 4 5 7 8 10 11 12 13 14 15 16 16 16 17 17 18 18 23 24 26 17 18 17 19 17 16 13 18 18 22 26 24 24
14 11 8 6 5 4 1 1 2 4 5 7 8 10 11 12 13 14 15 15 15 16 16 17 17 17 15 23 24 26 19 17 19 19 19 18 18 18 18 17 18 17 16
11 8 6 5 4 2 1 2 4 5 6 8 10 11 11 13 14 14 15 15 15 16 16 16 17 18 17 23 24 23 17 17 18 17 18 17 18 23 25 18 17 17 16
9 7 6 5 2 3 2 4 6 7 8 10 11 11 12 13 14 15 15 14 15 16 14 16 16 20 19 22 23 21 13 16 13 16 17 22 20 25 25 18 17 16 15
9 6 4 3 3 3 4 5 7 8 9 10 11 12 12 13 13 14 14 14 15 16 16 17 15 16 17 18 23 24 15 13 13 13 12 11 23 24 25 25 16 16 15
7 5 3 3 3 3 4 7 8 9 9 10 11 12 12 11 11 14 13 14 15 16 15 16 14 12 16 22 22 26 26 24 16 15 12 15 23 24 25 22 24 26 22
5 4 2 2 3 4 5 8 9 9 10 11 12 12 12 11 11 12 13 12 13 13 13 13 13 12 12 12 23 26 31 29 20 14 18 27 28 29 23 27 28 27 12
5 3 0 4 5 5 6 7 9 9 10 11 12 11 11 11 11 9 10 11 10 12 12 12 12 13 12 11 11 12 13 19 14 15 14 19 23 23 20 17 14 11 10
4 2 3 4 6 7 8 8 9 9 10 11 11 10 9 11 11 10 10 11 12 13 13 12 12 13 12 12 21 20 13 12 16 19 12 10 9 11 10 9 10 9 9
2 2 4 6 7 8 9 9 9 10 11 11 9 9 9 9 9 10 10 14 19 20 21 23 18 11 21 26 26 27 27 26 25 12 10 10 10 9 8 8 8 8 11
Wind_Direction
163 161 159 156 153 153 150 149 149 152 158 157 153 149 118 108 93 77 60 50 41 35 31 31 29 20 22 13 8 359 357 3 358 345 342 327 329 297 339 301 342 351 339
169 166 165 164 168 160 153 147 142 151 164 166 134 118 126 96 89 88 69 47 42 34 32 23 24 20 7 14 10 10 353 357 9 347 323 337 324 20 321 319 329 329 336
175 172 170 169 164 165 160 151 143 138 135 131 125 118 115 127 140 91 76 45 35 33 22 21 14 12 5 4 0 3 4 345 346 350 340 332 331 322 338 309 308 331 320
180 171 170 167 171 162 150 141 135 126 121 146 151 161 136 130 88 68 56 52 36 35 27 12 7 359 350 350 346 350 339 331 332 331 325 299 305 307 303 313 314 312 320
177 173 174 169 161 155 152 142 131 123 118 115 118 118 108 103 107 92 70 51 51 49 28 3 350 347 337 331 323 321 319 309 306 311 307 302 295 286 281 301 300 304 308
175 170 164 158 155 149 147 145 140 127 123 118 112 112 119 119 119 91 70 22 359 349 356 352 345 336 330 323 315 308 297 294 290 286 286 284 290 294 296 298 302 300 299
168 164 164 166 159 158 154 154 151 140 136 129 123 118 116 111 107 85 15 340 340 345 346 340 337 334 327 319 314 308 300 293 286 284 283 287 281 286 289 292 296 297 300
168 167 167 164 162 162 161 159 154 145 143 134 125 120 111 101 89 39 360 341 331 332 331 334 332 329 325 321 315 308 301 295 286 279 277 278 279 282 282 286 296 292 290
166 163 159 161 160 160 161 157 150 140 133 129 124 109 96 77 41 355 331 327 316 315 318 320 321 321 319 319 317 309 305 299 293 282 277 274 276 276 277 280 281 283 292
158 155 153 152 152 146 142 141 139 133 126 117 110 98 76 30 351 321 313 309 306 306 308 309 309 312 313 311 308 301 297 295 291 285 281 279 277 278 276 275 276 273 280
154 150 146 143 138 137 140 139 135 132 128 123 111 101 59 332 312 306 308 306 304 301 300 303 304 301 300 300 300 298 296 293 292 290 285 282 279 275 274 271 266 267 272
148 147 147 145 144 139 137 131 131 126 122 125 125 92 296 309 311 309 305 302 298 298 298 298 294 292 293 296 294 292 292 291 288 285 282 280 279 276 271 262 263 262 270
148 144 143 144 142 140 137 134 135 134 134 140 346 324 320 316 307 302 299 295 295 296 295 291 292 294 296 295 288 286 286 286 285 283 281 281 281 276 269 263 262 265 267
147 144 143 143 141 139 137 139 138 135 116 8 317 308 305 303 302 302 299 297 295 294 292 292 293 295 295 292 289 286 286 287 286 284 281 281 280 277 272 263 262 266 266
152 152 148 144 140 139 138 145 141 144 316 297 303 300 303 300 301 300 300 299 296 294 295 295 294 294 291 289 296 293 291 289 288 284 279 278 275 276 272 274 270 263 259
153 149 145 144 145 144 145 147 170 277 308 300 299 305 302 305 305 303 301 299 297 296 295 295 297 296 290 296 295 293 288 287 285 286 283 286 283 274 273 268 262 255 262
151 148 147 145 142 145 163 210 306 309 289 295 302 305 310 309 307 304 301 299 299 300 298 297 297 296 295 296 294 293 288 286 284 283 282 284 280 281 277 273 264 261 261
146 143 140 143 141 134 164 294 274 292 302 307 311 312 310 306 303 300 300 300 301 300 299 299 297 296 295 295 294 294 289 283 282 282 284 283 283 282 283 275 268 266 264
136 131 129 120 123 123 83 297 296 316 319 312 308 308 306 304 303 302 304 302 301 299 298 296 297 296 295 299 297 297 295 288 287 285 283 284 285 284 280 274 271 269 265
128 132 129 129 123 78 3 319 323 316 306 311 308 304 303 300 300 302 301 299 297 298 298 296 296 296 295 298 299 300 293 290 290 286 283 281 279 283 281 275 274 270 269
126 128 124 96 61 30 348 313 309 305 312 305 300 300 300 300 300 299 302 303 301 299 297 298 300 300 298 300 301 300 296 291 290 289 287 281 282 283 282 279 276 273 274
124 109 106 67 30 359 321 305 299 309 304 301 298 298 301 303 303 303 304 303 302 302 305 305 301 299 297 293 290 289 288 287 286 284 286 286 285 282 275 276 275 274 273
114 105 76 352 340 312 294 292 304 310 307 304 302 305 306 305 306 307 310 308 306 305 302 303 302 304 311 310 307 299 294 290 284 278 277 280 281 279 276 274 272 272 266
112 110 76 304 302 302 301 302 309 310 308 307 309 309 309 315 314 311 304 299 304 305 306 308 315 318 314 310 315 313 306 296 297 292 286 287 281 274 268 270 265 274 263
128 169 255 285 305 318 316 317 316 318 312 310 308 308 311 315 309 301 303 305 305 311 311 318 314 312 309 313 313 313 314 303 299 307 292 279 273 270 261 255 253 250 256
146 317 325 320 320 316 317 318 321 320 312 309 312 315 311 306 303 307 308 310 313 315 314 312 309 310 310 314 318 315 311 314 309 305 303 300 295 288 278 267 258 249 250